Lapse_Rate
6.1 6.2 6.3 6.4 6.5 6.6 6.7 6.7 6.5 6.2 5.8 5.6 5.6 5.6 5.8 5.9 5.8 5.8 5.9 5.9 5.9 5.9 5.8 5.8 5.8 5.6 5.7 5.4 5.3 5.2 5.2 5.1 5.1 4.7 4.4 4.3 4.3 4.5 4.6 4.9 5.2 5.2 5.0
6.0 6.1 6.3 6.4 6.5 6.6 6.7 6.8 6.7 6.4 6.0 5.7 5.5 5.5 5.5 5.7 5.7 5.9 5.9 5.9 5.8 5.8 5.7 5.8 5.7 5.7 5.6 5.3 5.3 5.2 5.2 5.1 4.9 5.1 4.4 4.2 4.3 4.4 4.6 4.9 5.2 5.3 5.2
6.0 6.2 6.2 6.4 6.5 6.6 6.6 6.7 6.6 6.5 6.5 6.3 5.8 5.6 5.6 5.4 5.6 5.6 5.5 5.6 5.7 5.7 5.5 5.5 5.7 5.5 5.5 5.4 5.3 5.3 5.3 5.3 5.0 5.1 4.7 4.2 4.2 4.4 4.5 4.5 4.9 5.3 5.2
5.9 6.1 6.3 6.4 6.5 6.5 6.6 6.5 6.4 6.3 6.4 6.5 6.4 6.1 6.0 5.7 5.6 5.5 5.4 5.3 5.2 5.5 5.7 5.8 5.6 5.5 5.4 5.6 5.6 5.3 5.3 5.4 5.1 5.0 4.8 4.5 4.2 4.2 4.3 4.7 4.7 4.9 5.2
5.9 5.9 6.0 6.1 6.2 6.3 6.3 6.4 6.3 6.3 6.2 6.2 6.3 6.5 6.4 6.2 5.9 5.5 5.3 5.3 5.3 5.4 5.6 5.6 5.6 5.4 5.4 5.5 5.5 5.4 5.2 5.3 5.2 5.0 4.8 4.5 4.3 4.2 4.2 4.3 4.8 5.0 5.1
5.7 5.8 5.9 5.9 6.0 5.9 5.9 5.9 5.8 6.0 6.0 6.0 6.1 6.2 6.4 6.4 6.2 6.0 5.8 5.7 5.7 5.6 5.7 5.7 5.6 5.4 5.5 5.5 5.5 5.4 5.2 5.2 5.2 5.1 4.9 4.6 4.4 4.3 4.4 4.3 4.7 5.1 5.4
5.8 5.8 5.9 6.0 6.0 6.0 6.0 5.8 5.7 5.6 5.8 5.9 5.9 5.9 6.0 6.2 6.2 5.9 5.7 5.9 6.0 6.1 6.1 5.7 5.6 5.5 5.5 5.5 5.4 5.4 5.3 5.3 5.2 5.0 5.1 4.6 4.6 4.3 4.4 4.3 4.4 4.7 4.9
5.9 5.8 5.9 5.9 6.0 6.0 6.2 6.1 6.0 5.8 5.4 5.2 5.3 5.5 5.7 5.9 5.9 6.0 5.9 5.8 6.1 6.2 6.2 6.1 6.1 5.8 5.7 5.5 5.5 5.5 5.3 5.2 5.0 5.0 5.0 4.9 4.7 4.4 4.4 4.5 4.4 4.5 4.5
5.8 5.8 5.7 5.7 5.7 5.8 5.8 5.8 5.7 5.7 5.8 5.5 5.4 5.4 5.4 5.4 5.4 5.5 5.5 5.9 6.2 6.5 6.5 6.4 6.3 6.0 5.5 5.6 5.6 5.6 5.4 5.3 5.0 5.1 5.0 5.1 4.8 4.5 4.4 4.4 4.5 4.6 4.5
5.5 5.6 5.5 5.6 5.6 5.6 5.7 5.7 5.6 5.3 5.4 5.5 5.7 6.0 6.1 6.2 6.0 5.7 5.3 5.3 5.9 6.3 6.3 6.3 6.3 6.2 5.6 5.5 5.9 5.6 5.6 5.1 5.1 5.2 5.2 5.1 4.9 4.6 4.4 4.4 4.5 4.6 4.6
5.4 5.5 5.5 5.4 5.3 5.3 5.3 5.4 5.4 5.4 5.5 5.7 5.9 6.2 6.2 6.0 6.0 5.9 5.8 5.5 5.5 5.8 6.2 6.5 6.2 5.9 5.6 5.5 5.9 6.1 5.4 5.3 5.3 5.1 5.1 5.2 5.1 4.8 4.5 4.4 4.5 4.6 4.6
5.6 5.8 5.7 5.7 5.5 5.5 5.4 5.4 5.3 5.1 5.2 5.6 5.7 5.8 6.0 6.0 5.9 5.7 5.6 5.5 5.5 5.4 5.9 6.2 6.2 6.1 5.5 5.7 6.0 6.2 5.8 5.5 5.5 5.3 5.0 5.1 5.3 5.0 4.6 4.4 4.4 4.5 4.6
5.9 6.1 5.8 5.5 5.4 5.3 5.3 5.4 5.4 5.4 5.4 5.4 5.5 5.7 5.8 5.8 5.8 5.5 5.4 5.4 5.4 5.5 5.7 6.2 6.1 6.2 5.8 5.8 6.2 6.1 5.9 6.1 5.8 5.5 5.0 4.9 5.2 5.3 4.8 4.5 4.4 4.4 4.5
5.8 5.7 5.6 5.5 5.5 5.2 5.2 5.2 5.1 5.2 5.2 5.4 5.3 5.4 5.6 5.7 5.7 5.5 5.5 5.5 5.2 5.2 5.4 5.8 6.2 5.9 5.9 6.0 6.3 6.5 6.1 5.8 6.0 5.7 5.4 5.0 5.2 5.3 5.2 4.6 4.4 4.4 4.4
5.4 5.3 5.5 5.6 5.5 5.4 5.1 5.1 5.1 5.2 5.1 4.9 5.1 5.2 5.4 5.8 5.6 5.6 5.6 5.6 5.4 5.2 5.1 5.6 6.5 6.3 6.2 6.0 6.1 6.2 6.1 6.0 6.0 5.7 5.5 5.1 5.1 5.4 5.1 4.9 4.6 4.4 4.4
5.5 5.4 5.4 5.5 5.6 5.5 5.3 5.1 5.0 5.0 5.0 5.3 5.4 5.0 4.8 5.6 5.8 5.8 5.7 5.7 5.6 5.3 5.1 6.1 6.8 6.5 6.5 5.9 6.0 5.9 6.0 6.1 6.0 5.9 5.8 5.4 5.0 5.1 5.1 5.2 4.9 4.6 4.4
5.3 5.2 5.3 5.4 5.3 5.1 4.9 4.9 4.8 5.0 5.1 5.2 5.4 5.3 5.1 5.4 5.8 5.6 5.5 5.4 5.4 5.5 5.9 6.7 7.1 6.5 6.3 6.0 5.7 5.6 6.0 5.9 5.9 6.1 6.0 5.6 5.3 4.9 4.8 5.1 5.1 4.7 4.5
5.4 5.3 5.3 5.4 5.3 5.3 5.2 5.1 4.8 4.6 4.7 5.0 5.4 5.5 5.6 5.5 5.6 5.6 5.7 5.8 5.9 5.4 5.8 6.4 6.7 6.4 6.4 6.1 5.5 5.4 5.4 5.7 5.9 6.0 6.0 5.9 5.5 5.3 4.8 4.9 5.0 4.9 4.6
5.0 5.0 5.1 5.3 5.5 5.5 5.0 4.9 4.8 4.9 5.0 5.5 5.8 6.0 5.9 6.1 6.1 5.8 5.8 5.9 6.1 6.1 6.1 6.3 6.0 6.1 6.3 5.9 5.7 5.4 5.3 5.6 5.7 5.7 5.9 6.0 5.7 5.4 5.4 4.7 5.0 5.0 4.9
5.0 5.1 5.4 5.5 5.4 5.1 5.0 5.1 5.2 5.2 5.7 6.0 6.2 6.3 6.2 6.1 6.0 5.9 5.8 5.8 5.9 6.0 6.1 6.1 5.9 5.7 5.7 5.9 5.6 5.5 5.4 5.5 5.8 5.8 5.8 5.9 5.9 5.6 5.4 4.9 4.8 5.1 5.0
5.6 5.8 5.7 5.1 5.0 5.1 5.5 5.5 5.8 6.1 6.2 6.3 6.3 6.3 6.1 6.2 6.4 6.4 6.3 6.2 6.3 6.3 6.3 6.1 6.2 6.2 5.6 5.5 5.8 5.5 5.4 5.6 5.9 5.9 5.7 5.8 5.8 5.8 5.5 5.1 4.8 5.1 4.9
5.9 5.7 5.3 5.3 5.5 5.6 5.8 6.1 6.2 6.2 6.2 6.4 6.3 6.1 6.1 6.1 6.1 6.2 6.2 6.2 6.1 6.2 6.3 6.0 6.0 6.3 6.1 5.8 5.7 5.7 5.5 5.6 5.7 5.8 5.7 5.7 5.9 5.7 5.7 5.5 5.0 5.1 5.1
5.8 5.6 5.5 5.8 5.9 6.1 6.3 6.2 6.2 6.5 6.6 6.5 6.5 6.7 6.7 6.5 6.4 6.3 6.3 6.2 6.1 6.2 6.3 6.1 6.2 5.9 6.1 6.2 5.9 5.5 5.5 5.7 5.8 5.5 5.4 5.4 5.8 6.0 5.8 5.6 5.2 5.0 5.3
5.9 5.8 5.7 6.1 6.4 6.4 6.5 6.5 6.8 6.9 6.8 6.7 6.6 6.5 6.5 6.4 6.3 6.2 6.0 6.0 5.8 5.5 5.5 5.8 6.2 6.3 6.0 6.0 5.9 5.6 5.5 5.6 5.7 5.8 5.7 5.5 5.7 6.0 6.0 5.7 5.5 5.1 5.1
5.8 6.0 6.3 6.6 6.6 6.8 7.1 7.1 6.9 6.9 6.9 6.9 6.8 6.6 6.6 6.7 6.6 6.3 6.3 6.3 6.1 5.9 5.4 5.2 5.3 5.9 6.0 6.0 5.8 5.8 5.6 5.6 5.7 5.8 5.9 5.6 5.5 5.9 6.0 5.6 5.5 5.1 5.0
6.3 6.6 6.8 6.9 7.4 7.3 7.1 7.2 7.2 7.1 7.1 7.0 6.9 6.8 7.0 7.2 7.0 6.8 6.3 5.9 5.3 4.9 4.8 5.0 5.1 5.5 5.8 5.9 5.9 5.9 5.9 5.6 5.5 5.6 5.5 5.4 5.5 5.8 6.0 5.8 5.5 5.3 4.9
Wind_Speed
8 8 8 8 11 11 12 11 11 8 8 9 8 9 10 10 9 8 7 8 9 7 7 7 8 6 5 4 4 4 4 4 6 5 3 5 5 5 8 5 10 11 15
7 8 8 8 8 11 11 12 9 10 7 7 7 7 8 10 9 11 11 12 10 9 9 8 8 7 7 6 5 6 5 5 4 8 3 3 4 5 4 2 4 9 14
6 7 7 8 8 8 8 8 9 10 9 10 10 11 11 11 11 12 12 11 10 11 10 9 9 7 7 5 6 6 5 6 4 4 4 3 4 3 1 2 2 5 11
6 6 7 7 8 7 8 8 8 8 9 11 12 12 12 11 12 12 13 11 11 11 9 10 9 9 9 8 7 8 6 5 4 4 3 4 3 4 1 1 3 1 5
4 5 7 6 6 7 7 8 7 7 8 8 8 12 11 11 10 12 12 12 12 11 8 10 9 11 16 13 7 6 6 4 4 4 4 3 2 2 2 2 1 3 5
5 6 6 6 6 7 6 7 7 7 7 7 8 10 10 11 20 23 17 12 12 12 11 9 10 17 19 24 23 22 11 5 5 4 4 4 3 3 1 1 2 2 3
6 7 7 6 6 6 6 6 7 7 6 8 9 8 11 11 22 24 25 11 11 12 12 10 9 10 16 10 18 23 22 23 20 8 8 5 4 4 3 2 3 3 3
6 7 6 7 7 7 7 8 7 6 7 7 8 8 10 10 19 23 24 15 12 11 13 12 11 12 11 11 10 10 10 9 10 7 6 6 5 6 5 5 4 4 3
7 7 7 7 7 7 8 8 7 6 8 9 9 10 11 12 19 22 19 14 14 15 13 11 13 13 18 23 10 11 8 9 16 22 20 15 14 13 12 2 2 1 3
8 8 7 7 7 8 8 8 7 6 9 6 9 9 14 13 16 20 19 10 13 11 13 14 23 17 23 25 13 11 10 8 6 6 4 9 14 11 15 8 4 3 2
8 7 7 7 8 7 7 5 6 6 6 6 8 8 8 10 11 19 22 13 12 11 11 10 12 26 26 26 24 10 14 7 11 6 5 4 5 5 4 8 10 4 3
8 8 8 8 6 5 7 5 6 6 6 7 6 8 7 9 16 17 22 25 20 12 11 10 11 23 26 26 20 22 21 16 5 6 5 5 5 5 5 5 12 11 9
8 9 8 7 6 6 7 6 4 5 5 8 6 7 7 7 8 20 22 24 25 16 11 13 14 19 25 23 26 24 23 9 7 6 7 7 7 7 6 4 8 10 9
10 9 7 7 7 6 3 4 4 5 5 6 7 8 7 7 7 6 8 11 21 15 20 13 12 14 18 15 14 15 10 9 8 9 7 4 5 4 4 4 4 3 3
9 7 6 5 6 5 5 5 5 6 6 6 7 6 6 8 7 9 9 7 8 11 11 7 9 4 7 8 7 8 9 9 10 8 6 5 5 4 4 4 4 3 4
8 6 5 5 5 4 4 4 8 12 14 15 17 13 10 17 19 19 15 11 14 17 8 8 9 9 9 9 9 9 9 14 10 8 7 7 6 5 5 3 3 4 4
8 5 4 5 4 4 4 4 5 4 11 14 16 17 17 19 19 18 17 13 12 11 6 9 9 10 10 10 10 10 11 11 10 9 9 8 7 6 8 4 4 3 4
6 8 4 4 4 4 4 4 3 4 6 6 8 9 10 16 17 17 16 14 7 10 8 8 9 10 9 10 10 10 10 9 9 10 9 9 8 8 5 6 6 5 4
4 3 3 3 3 4 3 4 3 5 5 6 6 6 8 13 15 16 14 7 8 8 8 8 9 9 9 8 10 10 11 10 10 9 9 9 8 8 7 6 7 11 10
4 6 4 1 2 3 3 4 3 4 4 5 4 5 5 7 5 5 4 6 8 8 8 8 8 9 8 8 8 9 9 11 10 9 10 9 9 9 9 8 8 7 6
3 3 5 3 3 3 2 3 3 3 4 5 5 6 15 8 6 6 5 5 5 7 8 8 7 9 9 7 7 9 11 10 11 10 10 9 9 9 9 9 9 7 5
3 3 3 3 3 1 2 2 3 4 4 5 6 7 14 7 7 6 5 5 5 5 6 8 8 7 9 9 8 9 10 11 10 10 10 10 10 10 9 9 9 7 7
3 3 3 2 3 3 2 3 4 4 4 4 5 6 6 6 6 7 7 8 7 6 5 5 7 8 7 8 9 9 10 11 11 11 11 10 10 10 9 10 9 9 9
3 3 3 2 0 2 4 4 4 5 5 6 5 6 6 7 7 7 8 8 8 8 8 7 6 7 6 6 8 8 8 9 9 10 14 11 11 12 10 10 10 11 10
3 3 2 1 3 4 4 4 3 3 5 6 6 6 7 8 8 8 8 8 8 8 8 7 7 8 8 10 9 11 12 17 14 15 10 12 13 14 12 10 10 9 10
3 3 2 3 2 2 4 4 4 4 6 6 6 7 7 8 8 9 8 8 7 8 9 7 8 10 10 8 10 13 15 18 15 20 11 10 11 10 10 12 14 10 10
Wind_Direction
204 207 209 204 203 204 211 211 211 200 203 206 197 195 197 198 201 202 202 202 215 220 226 216 224 222 222 216 217 219 221 206 252 275 250 279 293 289 294 327 343 3 344
214 205 209 203 196 204 212 209 203 204 198 198 205 204 207 208 205 205 210 214 215 218 220 221 222 226 225 217 215 222 221 229 221 266 249 275 264 278 258 322 28 350 343
210 210 222 211 204 206 209 210 201 202 197 192 197 209 210 213 211 216 216 214 213 215 217 219 224 216 227 216 216 218 222 237 226 229 259 251 262 264 308 3 329 335 330
205 215 218 217 208 204 205 212 207 206 211 207 204 205 210 211 215 215 215 217 221 222 216 212 214 215 216 212 221 221 221 225 230 238 252 260 248 262 139 254 321 316 331
221 221 235 222 211 205 211 211 209 205 217 224 214 211 207 209 215 217 217 214 217 220 221 222 217 214 227 221 224 226 216 223 221 233 257 258 257 297 231 241 260 304 331
216 231 228 219 219 216 222 210 211 215 216 220 224 224 215 219 221 219 211 216 213 215 222 222 222 228 236 241 244 236 210 206 226 216 229 239 250 236 118 86 328 320 332
219 228 225 219 218 219 212 220 228 229 227 224 225 223 228 222 222 224 223 218 215 216 219 218 218 225 225 220 242 245 246 241 239 226 233 220 223 209 170 239 244 227 259
225 237 225 211 215 215 214 213 217 215 224 231 235 231 238 238 231 226 225 226 223 220 220 213 209 215 214 207 205 224 239 233 243 256 232 212 211 204 200 190 209 244 278
229 229 226 213 217 214 222 225 221 213 216 219 228 225 228 239 234 231 224 224 224 226 222 214 212 212 214 223 203 215 223 230 237 241 238 234 233 241 248 159 276 343 295
225 227 220 215 212 218 220 222 219 220 231 225 236 228 230 239 224 227 225 229 229 224 227 227 224 213 214 220 215 203 217 219 211 238 248 239 246 253 253 220 195 225 231
222 212 211 217 217 221 230 226 228 231 237 234 240 244 235 235 233 227 225 221 230 229 227 226 221 223 217 219 219 194 216 180 221 217 214 215 223 220 229 225 202 195 204
213 201 212 216 219 216 222 236 242 238 243 250 241 253 249 241 239 236 233 230 225 226 233 231 224 214 219 218 218 217 214 215 196 209 207 225 218 223 227 219 213 217 221
206 211 212 217 218 211 216 231 236 232 240 259 251 252 254 244 240 239 237 235 236 227 228 237 227 212 215 216 219 220 218 206 184 195 209 215 216 222 212 204 205 215 234
219 217 210 212 220 220 210 222 226 234 223 242 259 260 260 259 246 230 231 240 239 237 231 231 241 218 205 209 217 219 213 202 192 199 206 196 213 205 188 172 182 196 200
221 212 210 211 208 211 222 215 223 227 213 230 248 252 265 267 262 238 221 218 216 222 227 223 224 201 196 204 207 207 207 202 206 193 187 196 206 190 185 179 183 190 189
215 204 201 197 202 206 225 261 252 253 255 254 258 256 268 267 274 278 285 288 220 209 214 215 219 212 198 201 206 206 208 207 205 188 190 197 196 187 188 181 171 186 198
211 199 192 183 192 211 227 234 261 274 265 267 269 264 263 263 268 269 268 268 253 222 213 211 220 220 205 202 208 208 209 209 197 196 193 195 186 184 195 186 186 181 205
192 189 182 189 204 213 233 238 249 264 284 297 269 270 275 278 272 267 263 253 254 246 231 228 223 222 212 204 206 207 209 201 200 198 192 192 189 190 188 192 195 192 194
175 188 203 216 222 229 236 259 244 259 267 277 290 296 292 282 287 273 255 239 235 236 233 233 231 230 221 204 204 205 202 200 198 196 196 192 190 186 196 188 192 197 195
184 204 191 178 260 265 255 256 263 272 280 273 282 300 300 301 300 287 251 240 235 236 232 232 226 228 222 209 200 196 197 199 198 196 198 195 193 191 195 190 188 196 194
180 173 199 219 235 240 265 305 308 338 300 295 300 301 312 312 296 279 270 279 259 245 236 230 221 217 224 216 198 195 197 197 196 195 196 196 192 196 193 189 189 190 177
171 184 189 208 227 263 280 273 273 282 299 301 297 298 305 305 305 292 267 265 267 260 245 232 228 216 214 216 204 198 197 199 194 192 195 195 191 196 189 187 185 183 181
178 182 204 214 222 262 275 269 262 268 277 277 280 291 300 299 297 301 305 309 305 289 277 261 238 230 216 210 203 200 196 197 193 189 191 192 193 191 190 189 186 186 186
169 190 218 226 271 261 254 260 276 284 297 290 296 304 299 292 290 286 292 298 298 296 297 286 277 253 221 205 198 195 198 195 191 192 186 190 194 191 188 188 189 185 186
177 196 215 216 245 246 262 286 289 293 305 311 310 306 305 304 303 293 286 286 287 290 288 290 281 270 263 226 196 191 189 183 185 185 188 188 192 190 187 187 183 182 177
173 164 209 235 263 331 298 301 298 308 324 315 310 306 308 304 303 306 295 282 280 279 282 281 276 276 271 258 219 194 186 187 187 184 183 186 187 188 184 186 182 180 175